Regional Weather Roundup
Issued by NWS Kansas City/Pleasant Hill, MO

Home | Current Version | Previous Version | Text Only | Print | Product List | Glossary On
Versions: 1 2 3 4 5 6 7 8 9 10 11 12 13 14 15 16 17 18 19 20 21 22 23 24 25 26 27 28 29 30 31 32 33 34 35 36 37 38 39 40 41 42 43 44 45 46 47 48 49 50
000
ASUS43 KEAX 300811
RWREAX

WEATHER ROUNDUP FOR EASTERN KANSAS AND NORTHWEST MISSOURI
NATIONAL WEATHER SERVICE KANSAS CITY/PLEASANT HILL MO
300 AM CDT SAT AUG 30 2014

KSZ040-057-103>105-MOZ028-029-037-043-300900-
...KANSAS CITY METROPOLITAN AREA...

CITY           SKY/WX    TMP DP  RH WIND       PRES   REMARKS
K.C. INTL      CLEAR     68  67  96 S7        29.87S
K.C. DOWNTOWN  CLEAR     72  69  90 CALM      29.86F
LEES SUMMIT    PTCLDY    73  66  78 SW7       29.89S
OLATHE - IXD   CLEAR     70  65  84 S6        29.89S
OLATHE - OJC   CLEAR     71  66  84 S6        29.88F
LAWRENCE       CLEAR     69  65  86 CALM      29.87F

$$

MOZ001>008-011>017-020>025-030>033-038>040-044>046-053-054-300900-
...NORTHERN AND CENTRAL MISSOURI...

CITY           SKY/WX    TMP DP  RH WIND       PRES   REMARKS
ST. JOSEPH     CLEAR     67  65  93 CALM      29.86S
MOSBY          SUNNY     70  68  94 S3        29.86S
WHITEMAN AFB   PTCLDY    70  67  90 S10       29.89F
CLINTON        MOCLDY    75  70  83 S6        29.91S
SEDALIA        MOCLDY    75  67  76 S9        29.91S
WARSAW         NOT AVBL
MARSHALL       CLOUDY    73  70  88 S5        29.90F
CHILLICOTHE      N/A     71  67  87 S3        29.86F
MOBERLY        HVY RAIN  70  63  78 SW6       29.90F
KIRKSVILLE     CLOUDY    69  66  90 S8        29.86F

$$

MOZ041-047>049-056>058-063>065-088>090-097-300900-
...EASTERN AND SOUTHERN MISSOURI...

CITY           SKY/WX    TMP DP  RH WIND       PRES   REMARKS
ST. LOUIS INTL CLOUDY    78  67  68 S8        29.93R
SPIRIT OF STL  CLOUDY    75  68  78 SW7       29.91R
COLUMBIA       MOCLDY    72  69  90 S8        29.91S
JEFFERSON CITY MOCLDY    72  68  87 SE5       29.91S
MEXICO         PTCLDY   N/A N/A N/A SW8       29.90S
HANNIBAL       LGT RAIN  73  70  88 W12       29.90R
ROLLA          PTCLDY    70  66  87 S12       29.94S
LEBANON        MOCLDY    70  66  88 S7        29.96F
OSAGE BEACH    CLOUDY    72  66  83 CALM      29.94R
SPRINGFIELD    PTCLDY    72  67  84 S9        29.95S
BRANSON        PTCLDY    70  66  88 CALM      29.98F
NEVADA         LGT RAIN  72  68  88 S7        29.92F
JOPLIN         CLOUDY    75  68  78 S9        29.94S
WEST PLAINS    CLOUDY    72  67  84 S5        29.99F

$$

IAZ060-094-KSZ022-034>040-054-083-096-NEZ052-066-093-300900-
...KANSAS...SOUTHEAST NEBRASKA AND IOWA...

CITY           SKY/WX    TMP DP  RH WIND       PRES   REMARKS
TOPEKA         CLEAR     68  67  96 N6        29.88R
MANHATTAN      CLEAR     68  65  90 CALM      29.89S
EMPORIA        CLEAR     69  66  90 CALM      29.90S
CHANUTE        CLEAR     73  69  87 S9        29.92S
WICHITA        CLEAR     67  65  93 SW5       29.91F
OMAHA          CLEAR     67  64  90 W5        29.86R
LINCOLN        PTCLDY    67  64  90 W5        29.90R
FALLS CITY     CLEAR     66  65  96 N5        29.87R
LAMONI         PTCLDY    67  66  97 W7        29.85R
DES MOINES     MOCLDY    68  65  90 W6        29.80S

$$




USA.gov is the U.S. government's official web portal to all federal, state and local government web resources and services.